Regional Weather Roundup
Issued by NWS

Home | Current Version | Previous Version | Text Only | Print | Product List | Glossary On
Versions: 1 2 3 4 5 6 7 8 9 10 11 12 13 14 15 16 17 18 19 20 21 22 23 24 25 26 27 28 29 30 31 32 33 34 35 36 37 38 39 40 41 42 43 44 45 46 47 48 49 50
000
ASUS43 KIND 232209
RWRIN

WEATHER ROUNDUP FOR INDIANA
NATIONAL WEATHER SERVICE INDIANAPOLIS IN
500 PM EST TUE JAN 23 2018

NOTE: "FAIR" INDICATES FEW OR NO CLOUDS BELOW 12,000 FEET WITH NO
SIGNIFICANT WEATHER AND/OR OBSTRUCTIONS TO VISIBILITY.

* - STATION DOES NOT REPORT WEATHER SUCH AS PRECIPITATION OR FOG.

+ - STATION NOT QUALITY CONTROLLED BY THE NATIONAL WEATHER SERVICE.
    USE DATA WITH CAUTION...ESPECIALLY DEWPOINT AND RELATIVE
    HUMIDITY OBSERVATIONS.

INZ001>003-010>013-019-020-232300-
NORTHWEST INDIANA

CITY           SKY/WX    TMP DP  RH WIND       PRES   REMARKS
GARY /AIRPORT/ CLOUDY    32  25  74 W12       29.99R WCI  23
KNOX *+        CLOUDY    30  28  93 NW14      29.96R WCI  20
LA PORTE +     CLOUDY    29  25  86 NW8G20    29.97R WCI  21
MICHIGAN CITY+ CLOUDY    30  27  86 NW12G17   29.98R WCI  21
MONTICELLO +   CLOUDY    31  27  82 W15       29.99R WCI  21
RENSSELAER +   CLOUDY    32  25  74 W12G22    30.00R WCI  23
VALPARAISO     CLOUDY    31  26  82 NW9       29.98R WCI  23

$$

LMZ046-743>745-232300-
SOUTHERN LAKE MICHIGAN

STATION/POSITION TIME  TEMP    WIND        PRES    WAVE
                       AIR SEA DIR/SP/G            HT
                 (UTC) (F)     (DEG/KT/KT) (MB)    (FT)
BURNS HARBOR     2140   30     310/ 13/ 18 1015.6R
MICHIGAN CITY    2140   30     290/ 22/ 24   N/A

$$

INZ004-005-014>016-021>024-232300-
NORTH CENTRAL INDIANA

CITY           SKY/WX    TMP DP  RH WIND       PRES   REMARKS
ELKHART        CLOUDY    30  27  86 NW12G17   29.92R WCI  21
GOSHEN         CLOUDY    31  26  82 W17       29.91R WCI  19
LOGANSPORT +   CLOUDY    32  28  86 W12G20    29.98R WCI  23
PERU/GRISSOM   DRIZZLE   32  32 100 NW18      29.95R WCI  20
ROCHESTER +    CLOUDY    32  30  93 NW12G18   29.95R WCI  23
SOUTH BEND     FLURRIES  29  26  89 NW13      29.94R WCI  19
WARSAW +       CLOUDY    30  27  86 W15G21    29.93R WCI  19

$$

INZ006>009-017-018-025>027-232300-
NORTHEAST INDIANA

CITY           SKY/WX    TMP DP  RH WIND       PRES   REMARKS
AUBURN +       CLOUDY   N/A N/A N/A W21G28    29.89R
FORT WAYNE     FLURRIES  33  29  85 W16       29.91R WCI  23
HUNTINGTON +   CLOUDY    32  29  89 W7        29.92R WCI  26
KENDALLVILLE + CLOUDY    31  27  85 W9G21     29.88R WCI  23

$$

INZ028-029-035-036-043>045-051>053-232300-
WEST CENTRAL INDIANA

CITY           SKY/WX    TMP DP  RH WIND       PRES   REMARKS
CRAWFORDSVL +  CLOUDY    30  30 100 MISG      29.99R
GREENCASTLE +  CLOUDY    32  30  93 W5        30.01R WCI  27
LAFAYETTE      CLOUDY    31  26  82 W15G24    30.00R WCI  20
TERRE HAUTE    CLOUDY    33  29  85 W10       30.05R WCI  25

$$

INZ030>032-037>040-046>048-054>057-064-065-232300-
CENTRAL INDIANA

CITY           SKY/WX    TMP DP  RH WIND       PRES   REMARKS
COLUMBUS       CLOUDY    36  32  87 W12       29.99R WCI  27
FISHERS *+     CLOUDY    32  32 100 W9G17     29.97R WCI  24
FRANKFORT +    CLOUDY    34  31  88 NW16      30.00R WCI  24
INDIANAPOLIS   CLOUDY    34  32  92 W17       29.98R WCI  23
-EAGLE CREEK   LGT RAIN  42  31  64 W15G23    29.98R
MARION +       CLOUDY    32  30  92 NW14      29.95R FOG     WCI  22
MT COMFORT *+  CLOUDY    32  32 100 W12       29.97R WCI  23
SHELBYVILLE    CLOUDY    37  32  82 W15       29.97R WCI  28
ZIONSVILLE +   CLOUDY    31  30  95 W14G22    29.97R FOG     WCI  21

$$

INZ033-034-041-042-049-050-058-059-232300-
EAST CENTRAL INDIANA

CITY           SKY/WX    TMP DP  RH WIND       PRES   REMARKS
MUNCIE         CLOUDY    36  30  79 NW18      29.93R WCI  26
RICHMOND +     LGT SNOW  32  32 100 NW18      29.94R WCI  20

$$

INZ060-061-067>069-081>083-085>088-232300-
SOUTHWEST INDIANA

CITY           SKY/WX    TMP DP  RH WIND       PRES   REMARKS
EVANSVILLE     CLOUDY    34  32  92 W10       30.12R WCI  26
HUNTINGBURG +  MIX PCPN  35  33  92 W17       30.09R FOG     WCI  25
WASHINGTON +   CLOUDY    34  28  79 W16G25    30.08R WCI  24

$$

INZ062-063-066-070>080-084-089>092-232300-
SOUTH CENTRAL AND SOUTHEAST INDIANA

CITY           SKY/WX    TMP DP  RH WIND       PRES   REMARKS
BATESVILLE *+    N/A    N/A N/A N/A MISG        N/A
BEDFORD +      LGT RAIN  36  32  87 W10G16    30.02R WCI  28
BLOOMINGTON    CLOUDY    34  31  88 W8G21     30.01R WCI  27
FRENCH LICK *+ CLOUDY    34  34 100 W9G20     30.06R WCI  26
MADISON *+     CLOUDY    36  32  87 W9        30.03R WCI  29
NORTH VERNON + CLOUDY    36  32  87 W13G21    30.00R WCI  27
SEYMOUR +      CLOUDY    39  32  75 W12       30.01R WCI  32

$$





USA.gov is the U.S. government's official web portal to all federal, state and local government web resources and services.